User: anonymous   Login
Location: Sun City Center
(27.6996°N, 82.3528°W)
Time: 06:08:50
(UTC-05:00)
Language:

Cosmos 2084 Rocket - Orbit

View from above orbital plane
View from above orbital plane
View from above satellite
View from above satellite

Ground track
Ground track

The orbit data is extracted from the following two-line orbital elements,

1 20666U 90055D   15061.19044347  .00002133  00000-0  22033-3 0  9996
2 20666 062.7857 063.6953 0088647 022.6918 337.8055 14.90521413336193
Epoch (UTC): 02 March 2015 04:34:14
Eccentricity: 0.0088647
inclination: 62.7857°
perigee height: 534 km
apogee height: 658 km
right ascension of ascending node: 63.6953°
argument of perigee: 22.6918°
revolutions per day: 14.90521413
mean anomaly at epoch: 337.8055°
orbit number at epoch: 33619

The dashed part of the orbit path shows where the satellite is in the earth's shadow,  

DLR